Weather History for Biloxi, MS

Change the Weather History Date:

Tuesday, June 4, 2013

  Actual Average Record
Temperature  
Mean Temperature 82 °F -  
Max Temperature 87 °F 86 °F 102 °F (2011)
Min Temperature 76 °F 70 °F 61 °F (1956)
Cooling Degree Days 16    
Growing Degree Days 32 (Base 50)    
Moisture  
Dew Point 74 °F    
Average Humidity 79    
Maximum Humidity 94    
Minimum Humidity 61    
Precipitation  
Precipitation 0.00 in - - ()
Sea Level Pressure  
Sea Level Pressure 29.93 in    
Wind  
Wind Speed 7 mph (SE)    
Max Wind Speed 13 mph    
Max Gust Speed 20 mph    
Visibility 10 miles    
Events Rain    
Averages and records for this station are not official NWS values.
T = Trace of Precipitation, MM = Missing Value Source: NWS Daily Summary

Daily Weather History Graph

Daily Weather History Graph

Search for Another Location

Airport:

Trip Planner

Search our weather history database for the weather conditions in past years. The results will help you decide how hot, cold, wet, or windy it might be!

Date:

Astronomy

Jun. 04, 2013 Rise Set
Actual Time 5:53 AM CDT 7:54 PM CDT
Civil Twilight 5:26 AM CDT 8:22 PM CDT
Nautical Twilight 4:53 AM CDT 8:55 PM CDT
Astronomical Twilight 4:17 AM CDT 9:30 PM CDT
Moon 3:09 AM CDT (6/4) 4:35 PM CDT (6/4)
Length of Visible Light 14h 56m
Length of Day
14h 01m
Waning Crescent, 14% of the Moon is Illuminated
Jun 4
Waning Crescent
Jun 8
New
Jun 16
First Quarter
Jun 23
Full
Jun 29
Last Quarter

Hourly Weather History & Observations

Time (CDT) Temp. Heat Index Dew Point Humidity Pressure Visibility Wind Dir Wind Speed Gust Speed Precip Events Conditions
12:58 AM 80.2 °F 85.4 °F 75.0 °F 84% 29.91 in 10.0 mi SSE 5.8 mph - N/A   Clear
1:56 AM 80.6 °F 85.4 °F 73.4 °F 79% 29.89 in 10.0 mi South 8.1 mph - N/A   Partly Cloudy
3:58 AM 77.0 °F - 75.2 °F 94% 29.90 in 10.0 mi NNE 2.3 mph - N/A   Scattered Clouds
4:58 AM 77.2 °F - 75.0 °F 93% 29.91 in 10.0 mi NE 3.5 mph - N/A   Scattered Clouds
5:58 AM 76.5 °F - 74.7 °F 94% 29.93 in 10.0 mi NE 4.6 mph - N/A   Scattered Clouds
6:03 AM 77.0 °F - 75.2 °F 94% 29.92 in 10.0 mi NE 4.6 mph - N/A   Mostly Cloudy
6:58 AM 77.4 °F - 75.2 °F 93% 29.94 in 10.0 mi East 6.9 mph - N/A   Partly Cloudy
7:33 AM 78.8 °F - 75.2 °F 89% 29.92 in 10.0 mi East 5.8 mph - N/A Rain Light Rain
7:38 AM 78.8 °F - 75.2 °F 89% 29.93 in 10.0 mi East 6.9 mph - N/A Rain Light Rain
7:43 AM 78.8 °F - 75.2 °F 89% 29.93 in 10.0 mi East 6.9 mph - N/A   Mostly Cloudy
7:53 AM 80.6 °F 86.2 °F 75.2 °F 84% 29.93 in 10.0 mi Variable 5.8 mph - N/A   Mostly Cloudy
7:58 AM 80.4 °F 85.8 °F 75.2 °F 84% 29.94 in 10.0 mi East 6.9 mph - 0.00 in   Mostly Cloudy
8:58 AM 83.1 °F 90.4 °F 74.7 °F 76% 29.95 in 10.0 mi East 6.9 mph - N/A   Partly Cloudy
9:13 AM 84.2 °F 90.9 °F 73.4 °F 70% 29.94 in 10.0 mi East 3.5 mph - N/A   Mostly Cloudy
9:43 AM 84.2 °F 90.9 °F 73.4 °F 70% 29.94 in 10.0 mi SSE 5.8 mph - N/A   Scattered Clouds
9:58 AM 83.7 °F 90.4 °F 73.9 °F 72% 29.95 in 10.0 mi SE 8.1 mph - N/A   Scattered Clouds
10:18 AM 86.0 °F 95.1 °F 75.2 °F 70% 29.94 in 10.0 mi SSE 8.1 mph - N/A   Mostly Cloudy
10:28 AM 86.0 °F 93.4 °F 73.4 °F 66% 29.95 in 10.0 mi SSE 9.2 mph - N/A   Scattered Clouds
10:58 AM 86.5 °F 93.8 °F 73.0 °F 64% 29.95 in 10.0 mi SSE 8.1 mph - N/A   Clear
11:58 AM 86.9 °F 93.3 °F 72.0 °F 61% 29.95 in 10.0 mi SSE 9.2 mph - N/A   Clear
12:58 PM 87.1 °F 94.9 °F 73.8 °F 64% 29.95 in 10.0 mi SSE 8.1 mph - N/A   Partly Cloudy
1:58 PM 86.9 °F 95.9 °F 74.7 °F 67% 29.94 in 10.0 mi SSE 10.4 mph - N/A   Clear
2:58 PM 86.7 °F 96.4 °F 75.6 °F 69% 29.93 in 10.0 mi SSE 10.4 mph 17.3 mph N/A   Clear
3:58 PM 86.0 °F 95.1 °F 75.0 °F 70% 29.91 in 10.0 mi SSE 12.7 mph 19.6 mph N/A   Clear
4:58 PM 85.8 °F 93.0 °F 73.4 °F 66% 29.91 in 10.0 mi SSE 9.2 mph - N/A   Clear
5:58 PM 84.9 °F 91.8 °F 73.4 °F 68% 29.91 in 10.0 mi SSE 10.4 mph - N/A   Clear
6:58 PM 83.3 °F 90.2 °F 74.3 °F 74% 29.90 in 10.0 mi SE 9.2 mph - N/A   Scattered Clouds
7:58 PM 81.7 °F 87.6 °F 74.3 °F 78% 29.90 in 10.0 mi SE 11.5 mph - N/A   Partly Cloudy
8:58 PM 81.3 °F 87.0 °F 74.3 °F 79% 29.92 in 10.0 mi SSE 9.2 mph 19.6 mph N/A   Scattered Clouds
9:33 PM 80.6 °F 86.2 °F 75.2 °F 84% 29.93 in 10.0 mi SE 6.9 mph - N/A   Mostly Cloudy
9:48 PM 80.6 °F 86.2 °F 75.2 °F 84% 29.93 in 10.0 mi SSE 6.9 mph - N/A   Mostly Cloudy
9:53 PM 80.6 °F 86.2 °F 75.2 °F 84% 29.93 in 10.0 mi SE 8.1 mph - N/A   Scattered Clouds
9:58 PM 81.1 °F 87.0 °F 74.7 °F 81% 29.94 in 10.0 mi SSE 8.1 mph - N/A   Scattered Clouds
10:03 PM 80.6 °F 86.2 °F 75.2 °F 84% 29.94 in 10.0 mi SSE 8.1 mph - N/A   Mostly Cloudy
10:18 PM 80.6 °F 85.4 °F 73.4 °F 79% 29.94 in 10.0 mi SSE 9.2 mph - N/A   Mostly Cloudy
10:23 PM 80.6 °F 85.4 °F 73.4 °F 79% 29.94 in 10.0 mi SSE 8.1 mph - N/A   Mostly Cloudy
10:33 PM 80.6 °F 86.2 °F 75.2 °F 84% 29.93 in 10.0 mi SSE 10.4 mph - N/A   Mostly Cloudy
10:38 PM 80.6 °F 85.4 °F 73.4 °F 79% 29.93 in 10.0 mi SSE 10.4 mph - N/A   Mostly Cloudy
10:43 PM 80.6 °F 85.4 °F 73.4 °F 79% 29.93 in 10.0 mi SSE 8.1 mph - N/A   Scattered Clouds
10:58 PM 80.6 °F 86.2 °F 75.2 °F 84% 29.95 in 10.0 mi SSE 9.2 mph - N/A   Mostly Cloudy
11:03 PM 80.6 °F 85.4 °F 73.4 °F 79% 29.94 in 10.0 mi SSE 8.1 mph - N/A   Scattered Clouds
11:58 PM 81.0 °F 86.5 °F 74.7 °F 81% 29.94 in 10.0 mi SSE 8.1 mph - N/A   Mostly Cloudy